Simultaneous Nadir Overpasses (SNOs) Predictions

Prediction of SNOs between LANDSAT-8 and METOP-A Satellite Orbit:

Table of predicted SNOs for the next 14.0 days since TLE Epoch: 8/18/2018
Index Date (LANDSAT-8) Time (LANDSAT-8) Lat,Lon (LANDSAT-8) SZA (LANDSAT-8 ) Date (METOP-A) Time (METOP-A) Lat,Lon (METOP-A) SZA (METOP-A ) Distance(km) Time Diff (sec)
1 08/19/2018 13:41:29 -81.38,-160.90 108.87 08/19/2018 13:40:54 -81.38,-160.98 108.89 1.44 35
2 08/19/2018 14:30:55 81.39, 6.89 71.17 08/19/2018 14:31:33 81.39, 6.87 71.19 0.56 38
3 08/22/2018 09:15:45 -81.39, -94.24 107.89 08/22/2018 09:15:10 -81.39, -94.38 107.92 2.38 35
4 08/22/2018 10:05:11 81.40, 73.52 72.14 08/22/2018 10:05:49 81.39, 73.44 72.15 1.37 38
5 08/25/2018 04:50:02 -81.38, -27.99 106.94 08/25/2018 04:49:27 -81.38, -28.18 106.98 3.23 35
6 08/25/2018 05:39:28 81.39, 139.74 73.09 08/25/2018 05:40:06 81.39, 139.61 73.09 2.23 38
7 08/28/2018 00:24:17 -81.39, 38.62 105.92 08/28/2018 00:23:41 -81.39, 38.79 105.92 2.93 36
8 08/28/2018 01:13:43 81.39,-153.68 74.11 08/28/2018 01:14:21 81.39,-153.83 74.11 2.55 38
9 08/30/2018 19:58:33 -81.40, 105.20 104.88 08/30/2018 19:57:57 -81.39, 105.37 104.88 2.78 36




NCC Satellite Simultaneous Nadir Overpasses (SNOs) Prediction Service
